AAL1722 KPIE-KAVL

Flight info

Callsign AAL1722
Flight time N/A
Altitude 39000
Route BAYPO2 CAMJO HEPAR TWINS/N0431F380 PLYRR/N0431F390
Aircraft A20N/M-SDE2E3FGHIRWXY/LB1

Departure

Time 2026-04-29 20:06
Airport St. Petersburg Clearwater International Airport (KPIE)

Arrival

Time N/A
Airport Asheville Regional Airport (KAVL)
Time Latitude Longitude Altitude Speed Heading
2026-04-29 19:58 27.90736 -82.69036 24 ft 0 kts 225°
2026-04-29 19:59 27.90745 -82.69025 54 ft 2 kts 243°
2026-04-29 20:00 27.90753 -82.69010 23 ft 2 kts 257°
2026-04-29 20:00 27.90756 -82.68993 26 ft 3 kts 276°
2026-04-29 20:00 27.90752 -82.68974 24 ft 4 kts 296°
2026-04-29 20:00 27.90744 -82.68962 26 ft 2 kts 315°
2026-04-29 20:01 27.90733 -82.68952 27 ft 2 kts 332°
2026-04-29 20:01 27.90723 -82.68947 25 ft 2 kts 345°
2026-04-29 20:01 27.90717 -82.68946 26 ft 0 kts 353°
2026-04-29 20:03 27.90770 -82.68953 24 ft 18 kts 353°
2026-04-29 20:03 27.90931 -82.68982 25 ft 28 kts 350°
2026-04-29 20:03 27.91138 -82.69024 24 ft 32 kts 353°
2026-04-29 20:03 27.91353 -82.69061 28 ft 30 kts 353°
2026-04-29 20:04 27.91526 -82.69091 24 ft 27 kts 350°
2026-04-29 20:04 27.91725 -82.69125 27 ft 31 kts 351°
2026-04-29 20:04 27.91930 -82.69161 27 ft 30 kts 351°
2026-04-29 20:04 27.92136 -82.69195 23 ft 30 kts 350°
2026-04-29 20:05 27.92314 -82.69172 25 ft 26 kts 58°
2026-04-29 20:05 27.92308 -82.69065 23 ft 6 kts 164°
2026-04-29 20:05 27.92191 -82.69044 24 ft 55 kts 171°
2026-04-29 20:05 27.91436 -82.68913 24 ft 158 kts 171°
2026-04-29 20:06 27.90204 -82.68654 693 ft 187 kts 173°
2026-04-29 20:06 27.88900 -82.68420 1980 ft 194 kts 173°
2026-04-29 20:06 27.87492 -82.68201 3072 ft 215 kts 173°
2026-04-29 20:06 27.85926 -82.67963 4073 ft 239 kts 173°
2026-04-29 20:07 27.84197 -82.67671 5052 ft 264 kts 168°
2026-04-29 20:07 27.82491 -82.66756 6080 ft 283 kts 142°
2026-04-29 20:07 27.81598 -82.65667 6821 ft 290 kts 123°
2026-04-29 20:07 27.80804 -82.62794 8527 ft 290 kts 88°
2026-04-29 20:08 27.80984 -82.61308 9400 ft 289 kts 71°
2026-04-29 20:08 27.81529 -82.59943 10206 ft 290 kts 54°
2026-04-29 20:08 27.83584 -82.57856 11195 ft 314 kts 24°
2026-04-29 20:08 27.85745 -82.57216 11772 ft 332 kts
2026-04-29 20:09 27.88735 -82.57951 13131 ft 337 kts 335°
2026-04-29 20:09 27.90825 -82.59171 14234 ft 340 kts 330°
2026-04-29 20:09 27.92890 -82.60517 15254 ft 344 kts 329°
2026-04-29 20:09 27.94343 -82.61331 15922 ft 348 kts 339°
2026-04-29 20:10 27.96740 -82.61833 16901 ft 356 kts 357°
2026-04-29 20:10 27.99231 -82.61571 17853 ft 363 kts
2026-04-29 20:10 28.01737 -82.61079 18742 ft 369 kts
2026-04-29 20:10 28.04276 -82.60541 19526 ft 374 kts
2026-04-29 20:11 28.06855 -82.60013 20324 ft 379 kts
2026-04-29 20:11 28.09474 -82.59503 21113 ft 384 kts
2026-04-29 20:11 28.12126 -82.59005 21907 ft 389 kts
2026-04-29 20:11 28.14819 -82.58510 22688 ft 395 kts
2026-04-29 20:12 28.17550 -82.58010 23460 ft 400 kts
2026-04-29 20:12 28.20322 -82.57671 24151 ft 401 kts 359°
2026-04-29 20:12 28.23072 -82.57686 24866 ft 401 kts 355°
2026-04-29 20:12 28.25876 -82.57778 25557 ft 405 kts 355°
2026-04-29 20:13 28.28701 -82.57860 26231 ft 408 kts 355°
2026-04-29 20:13 28.31548 -82.57941 26894 ft 411 kts 355°
2026-04-29 20:13 28.34421 -82.58022 27553 ft 414 kts 355°
2026-04-29 20:13 28.37317 -82.58105 28186 ft 418 kts 355°
2026-04-29 20:14 28.40231 -82.58180 28793 ft 421 kts 355°
2026-04-29 20:14 28.43170 -82.58252 29377 ft 424 kts 355°
2026-04-29 20:14 28.46133 -82.58324 29953 ft 427 kts 355°
2026-04-29 20:14 28.49112 -82.58397 30462 ft 430 kts 355°
2026-04-29 20:15 28.52113 -82.58471 30983 ft 432 kts 355°
2026-04-29 20:15 28.55123 -82.58546 31554 ft 433 kts 355°
2026-04-29 20:15 28.58126 -82.58621 32218 ft 431 kts 355°
2026-04-29 20:15 28.61110 -82.58695 32902 ft 428 kts 355°
2026-04-29 20:16 28.64084 -82.58769 33576 ft 426 kts 355°
2026-04-29 20:16 28.67036 -82.58877 34185 ft 423 kts 353°
2026-04-29 20:16 28.69946 -82.59245 34727 ft 419 kts 349°
2026-04-29 20:16 28.72836 -82.59657 35254 ft 418 kts 350°
2026-04-29 20:17 28.75715 -82.60058 35775 ft 416 kts 350°
2026-04-29 20:17 28.78583 -82.60455 36274 ft 415 kts 350°
2026-04-29 20:17 28.81444 -82.60852 36780 ft 413 kts 349°
2026-04-29 20:17 28.84289 -82.61248 37274 ft 412 kts 349°
2026-04-29 20:18 28.87126 -82.61644 37748 ft 410 kts 349°
2026-04-29 20:18 28.89956 -82.62039 38206 ft 409 kts 349°
2026-04-29 20:18 28.92773 -82.62433 38669 ft 408 kts 349°
2026-04-29 20:18 28.95589 -82.62827 38932 ft 407 kts 349°
2026-04-29 20:19 29.01203 -82.63613 39009 ft 406 kts 349°
2026-04-29 20:19 29.06807 -82.64399 39013 ft 406 kts 349°
2026-04-29 20:20 29.12418 -82.65187 39012 ft 406 kts 349°
2026-04-29 20:20 29.18032 -82.65975 39008 ft 406 kts 349°
2026-04-29 20:21 29.23650 -82.66765 39009 ft 407 kts 349°
2026-04-29 20:21 29.29273 -82.67556 39009 ft 407 kts 349°
2026-04-29 20:22 29.34902 -82.68349 39009 ft 408 kts 349°
2026-04-29 20:22 29.40537 -82.69129 39009 ft 409 kts 351°
2026-04-29 20:23 29.46251 -82.69283 39010 ft 412 kts 356°
2026-04-29 20:23 29.51988 -82.69248 39012 ft 412 kts 355°
2026-04-29 20:24 29.57690 -82.69219 39013 ft 413 kts 355°
2026-04-29 20:24 29.63432 -82.69185 39012 ft 413 kts 355°
2026-04-29 20:25 29.69177 -82.69149 39015 ft 413 kts 355°
2026-04-29 20:25 29.74923 -82.69113 39013 ft 413 kts 355°
2026-04-29 20:26 29.80662 -82.69077 39011 ft 413 kts 355°
2026-04-29 20:26 29.86408 -82.69041 39007 ft 413 kts 355°
2026-04-29 20:27 29.91215 -82.69010 38998 ft 412 kts 355°
2026-04-29 20:27 29.97882 -82.68968 38987 ft 412 kts 355°
2026-04-29 20:28 30.03614 -82.68933 38980 ft 412 kts 355°
2026-04-29 20:28 30.09342 -82.68897 38970 ft 411 kts 355°
2026-04-29 20:29 30.15065 -82.68861 38964 ft 411 kts 355°
2026-04-29 20:29 30.20782 -82.68825 38961 ft 411 kts 355°
2026-04-29 20:30 30.26498 -82.68789 38972 ft 411 kts 355°
2026-04-29 20:30 30.32215 -82.68753 38982 ft 410 kts 355°
2026-04-29 20:31 30.37921 -82.68717 38998 ft 410 kts 355°
2026-04-29 20:31 30.43630 -82.68681 39018 ft 410 kts 355°
2026-04-29 20:32 30.49334 -82.68605 39036 ft 411 kts 358°
2026-04-29 20:32 30.55046 -82.67745 39049 ft 417 kts
2026-04-29 20:33 30.60741 -82.66527 39053 ft 416 kts
2026-04-29 20:33 30.66395 -82.65334 39050 ft 416 kts
2026-04-29 20:34 30.72086 -82.64123 39042 ft 416 kts
2026-04-29 20:34 30.77770 -82.62909 39018 ft 415 kts
2026-04-29 20:35 30.83455 -82.61693 39001 ft 415 kts
2026-04-29 20:35 30.89136 -82.60477 38990 ft 415 kts
2026-04-29 20:36 30.94813 -82.59260 38982 ft 415 kts
2026-04-29 20:36 31.00496 -82.58040 38979 ft 415 kts
2026-04-29 20:37 31.06175 -82.56819 38979 ft 415 kts
2026-04-29 20:37 31.11858 -82.55818 38965 ft 412 kts
2026-04-29 20:38 31.17545 -82.54993 38956 ft 412 kts
2026-04-29 20:38 31.23227 -82.54161 38953 ft 412 kts
2026-04-29 20:39 31.28910 -82.53330 38949 ft 411 kts
2026-04-29 20:39 31.34589 -82.52500 38952 ft 411 kts
2026-04-29 20:40 31.40267 -82.51669 38960 ft 411 kts
2026-04-29 20:40 31.45939 -82.50838 38957 ft 411 kts
2026-04-29 20:41 31.51610 -82.50006 38956 ft 411 kts
2026-04-29 20:41 31.57279 -82.49173 38958 ft 410 kts
2026-04-29 20:42 31.62947 -82.48339 38955 ft 410 kts
2026-04-29 20:42 31.68612 -82.47505 38956 ft 410 kts
2026-04-29 20:43 31.74274 -82.46670 38952 ft 410 kts 360°
2026-04-29 20:43 31.79934 -82.45835 38950 ft 410 kts 360°
2026-04-29 20:44 31.85595 -82.44998 38946 ft 410 kts 360°
2026-04-29 20:44 31.91256 -82.44160 38947 ft 410 kts 359°
2026-04-29 20:45 31.96919 -82.43321 38948 ft 410 kts 359°
2026-04-29 20:45 32.02579 -82.42482 38935 ft 410 kts 359°
2026-04-29 20:46 32.08243 -82.41640 38928 ft 410 kts 359°
2026-04-29 20:46 32.13910 -82.40797 38925 ft 410 kts 359°
2026-04-29 20:47 32.19574 -82.39954 38924 ft 410 kts 359°
2026-04-29 20:47 32.24280 -82.39252 38923 ft 410 kts 359°
2026-04-29 20:48 32.30862 -82.38270 38926 ft 410 kts 359°
2026-04-29 20:48 32.36524 -82.37424 38931 ft 411 kts 359°
2026-04-29 20:49 32.42200 -82.36575 38936 ft 411 kts 359°
2026-04-29 20:49 32.47872 -82.35725 38940 ft 411 kts 359°
2026-04-29 20:50 32.53553 -82.34873 38939 ft 412 kts 359°
2026-04-29 20:50 32.59234 -82.34019 38942 ft 412 kts 358°
2026-04-29 20:51 32.64917 -82.33165 38945 ft 412 kts 358°
2026-04-29 20:51 32.70602 -82.32308 38946 ft 412 kts 358°
2026-04-29 20:52 32.76259 -82.31896 38940 ft 402 kts 350°
2026-04-29 20:52 32.81758 -82.32603 38941 ft 393 kts 341°
2026-04-29 20:53 32.87020 -82.34194 38943 ft 389 kts 338°
2026-04-29 20:53 32.92251 -82.35873 38937 ft 390 kts 338°
2026-04-29 20:54 33.00102 -82.38408 38942 ft 389 kts 337°
2026-04-29 20:55 33.05331 -82.40105 38942 ft 389 kts 337°
2026-04-29 20:55 33.09674 -82.41517 38938 ft 389 kts 337°
2026-04-29 20:56 33.14901 -82.43217 38942 ft 389 kts 337°
2026-04-29 20:56 33.20124 -82.44918 38944 ft 389 kts 337°
2026-04-29 20:57 33.25344 -82.46621 38949 ft 389 kts 336°
2026-04-29 20:57 33.30560 -82.48324 38952 ft 388 kts 336°
2026-04-29 20:58 33.35772 -82.50028 38961 ft 388 kts 336°
2026-04-29 20:58 33.38365 -82.50875 38853 ft 384 kts 336°
2026-04-29 20:58 33.40932 -82.51713 38348 ft 380 kts 336°
2026-04-29 20:58 33.43480 -82.52547 37234 ft 380 kts 336°
2026-04-29 20:59 33.46048 -82.53394 35928 ft 386 kts 336°
2026-04-29 20:59 33.48652 -82.54254 34649 ft 391 kts 336°
2026-04-29 20:59 33.51294 -82.55125 33251 ft 397 kts 336°
2026-04-29 20:59 33.53979 -82.56009 31702 ft 404 kts 337°
2026-04-29 21:00 33.56722 -82.56913 30089 ft 413 kts 337°
2026-04-29 21:00 33.59511 -82.57830 28636 ft 415 kts 337°
2026-04-29 21:00 33.62233 -82.58718 27601 ft 407 kts 337°
2026-04-29 21:00 33.64933 -82.59599 26510 ft 399 kts 337°
2026-04-29 21:01 33.67591 -82.60474 25420 ft 394 kts 337°
2026-04-29 21:01 33.70218 -82.61341 24359 ft 389 kts 338°
2026-04-29 21:01 33.72808 -82.62199 23341 ft 384 kts 338°
2026-04-29 21:01 33.75368 -82.63048 22228 ft 378 kts 338°
2026-04-29 21:02 33.77885 -82.63870 21197 ft 372 kts 340°
2026-04-29 21:02 33.80432 -82.64411 20210 ft 371 kts 347°
2026-04-29 21:02 33.83007 -82.64563 19250 ft 370 kts 354°
2026-04-29 21:02 33.85572 -82.64343 18341 ft 368 kts 360°
2026-04-29 21:03 33.88097 -82.64023 17337 ft 362 kts 359°
2026-04-29 21:03 33.90584 -82.63722 16321 ft 357 kts 360°
2026-04-29 21:03 33.93042 -82.63429 15328 ft 353 kts
2026-04-29 21:03 33.95465 -82.63139 14378 ft 348 kts
2026-04-29 21:04 33.97860 -82.62851 13423 ft 344 kts
2026-04-29 21:04 34.00224 -82.62563 12425 ft 340 kts
2026-04-29 21:04 34.02561 -82.62275 11461 ft 335 kts
2026-04-29 21:04 34.04869 -82.61992 10531 ft 332 kts
2026-04-29 21:05 34.07146 -82.61711 9886 ft 321 kts
2026-04-29 21:05 34.09284 -82.61441 9655 ft 298 kts
2026-04-29 21:05 34.11282 -82.61188 9262 ft 283 kts
2026-04-29 21:05 34.13223 -82.60950 8641 ft 279 kts
2026-04-29 21:06 34.15151 -82.60718 8014 ft 276 kts
2026-04-29 21:06 34.16996 -82.60488 7828 ft 257 kts 360°
2026-04-29 21:06 34.18712 -82.60270 7680 ft 239 kts 359°
2026-04-29 21:06 34.20309 -82.60067 7559 ft 223 kts 359°
2026-04-29 21:07 34.21802 -82.59881 7411 ft 211 kts 359°
2026-04-29 21:07 34.23250 -82.59707 7092 ft 208 kts 359°
2026-04-29 21:07 34.24678 -82.59537 6896 ft 208 kts 358°
2026-04-29 21:07 34.26129 -82.59366 6781 ft 210 kts 359°
2026-04-29 21:08 34.27574 -82.59192 6655 ft 208 kts 359°
2026-04-29 21:08 34.29013 -82.59014 6532 ft 209 kts 359°
2026-04-29 21:08 34.30468 -82.58836 6418 ft 211 kts 359°
2026-04-29 21:08 34.31905 -82.58658 6292 ft 205 kts 359°
2026-04-29 21:09 34.33340 -82.58480 6172 ft 209 kts 359°
2026-04-29 21:09 34.34781 -82.58303 6053 ft 207 kts 359°
2026-04-29 21:09 34.36216 -82.58126 5926 ft 207 kts 359°
2026-04-29 21:09 34.37643 -82.57948 5806 ft 206 kts 359°
2026-04-29 21:10 34.39029 -82.57774 5717 ft 194 kts 359°
2026-04-29 21:10 34.40327 -82.57608 5585 ft 182 kts 359°
2026-04-29 21:10 34.41565 -82.57451 5360 ft 177 kts 358°
2026-04-29 21:10 34.42776 -82.57302 5209 ft 178 kts 358°
2026-04-29 21:11 34.44018 -82.57155 5090 ft 176 kts 358°
2026-04-29 21:11 34.45233 -82.57008 5075 ft 177 kts 359°
2026-04-29 21:11 34.46468 -82.56856 5076 ft 179 kts 358°
2026-04-29 21:11 34.47706 -82.56702 5081 ft 179 kts 358°
2026-04-29 21:12 34.48932 -82.56550 5079 ft 178 kts 358°
2026-04-29 21:12 34.50167 -82.56401 5084 ft 179 kts 358°
2026-04-29 21:12 34.51388 -82.56245 5080 ft 178 kts 358°
2026-04-29 21:12 34.52621 -82.56089 5086 ft 179 kts 358°
2026-04-29 21:13 34.53858 -82.55937 5061 ft 178 kts 358°
2026-04-29 21:13 34.55085 -82.55783 5078 ft 176 kts 357°
2026-04-29 21:13 34.56305 -82.55645 5081 ft 176 kts 358°
2026-04-29 21:13 34.57526 -82.55496 5082 ft 177 kts 358°
2026-04-29 21:14 34.58763 -82.55335 5076 ft 180 kts 358°
2026-04-29 21:14 34.59988 -82.55176 5076 ft 174 kts 358°
2026-04-29 21:14 34.61212 -82.55024 5083 ft 180 kts 358°
2026-04-29 21:14 34.62452 -82.54872 5082 ft 180 kts 358°